• In Czech Republic
  • List of Countries
  • For 7 days
  • Water Temperature
  • Satellite Maps
  • Weather Map
  • Weather Widgets
  • user-avatar
    Login

    Hourly Weather Kingston upon Thames

    Today, 13 December, Wednesday

    Time Temperature Precipitation Wind Pressure Humidity
    00:00 +4°C° 0 mm 6 mps 751 mmHg 92%
    01:00 +4°C° 0.7 mm 6 mps 751 mmHg 93%
    02:00 +5°C° 0.7 mm 6 mps 750 mmHg 93%
    03:00 +5°C° 0.7 mm 6 mps 749 mmHg 94%
    04:00 +5°C° 0 mm 6 mps 749 mmHg 94%
    05:00 +5°C° 0 mm 5 mps 749 mmHg 93%
    06:00 +5°C° 0 mm 4 mps 749 mmHg 93%
    07:00 +5°C° 0.2 mm 5 mps 748 mmHg 92%
    08:00 +5°C° 0.2 mm 5 mps 748 mmHg 91%
    09:00 +5°C° 0.2 mm 5 mps 748 mmHg 90%
    10:00 +4°C° 0.2 mm 6 mps 747 mmHg 89%
    11:00 +5°C° 0.2 mm 6 mps 746 mmHg 87%
    12:00 +6°C° 0.2 mm 7 mps 745 mmHg 85%
    13:00 +6°C° 0.8 mm 8 mps 744 mmHg 85%
    14:00 +6°C° 0.8 mm 8 mps 743 mmHg 85%
    15:00 +7°C° 0.8 mm 9 mps 742 mmHg 85%
    16:00 +5°C° 0.3 mm 8 mps 743 mmHg 81%
    17:00 +4°C° 0.3 mm 7 mps 743 mmHg 77%
    18:00 +3°C° 0.3 mm 7 mps 743 mmHg 72%
    19:00 +3°C° 0.6 mm 7 mps 743 mmHg 74%
    20:00 +2°C° 0.6 mm 8 mps 742 mmHg 76%
    21:00 +2°C° 0.6 mm 8 mps 742 mmHg 77%
    22:00 +1°C° 0.1 mm 8 mps 743 mmHg 74%
    23:00 +1°C° 0.1 mm 8 mps 743 mmHg 70%

    Tomorrow, 14 December, Thursday

    Time Temperature Precipitation Wind Pressure Humidity
    00:00 0°C° 0.1 mm 8 mps 744 mmHg 67%
    01:00 0°C° 0 mm 8 mps 745 mmHg 68%
    02:00 0°C° 0 mm 8 mps 745 mmHg 70%
    03:00 0°C° 0 mm 8 mps 746 mmHg 71%
    04:00 0°C° 0 mm 7 mps 745 mmHg 71%
    05:00 0°C° 0 mm 7 mps 745 mmHg 71%
    06:00 +2°C° 0 mm 7 mps 745 mmHg 71%
    07:00 +2°C° 0 mm 7 mps 745 mmHg 72%
    08:00 +2°C° 0 mm 7 mps 745 mmHg 72%
    09:00 +2°C° 0 mm 6 mps 744 mmHg 73%
    10:00 +2°C° 0 mm 6 mps 744 mmHg 72%
    11:00 +3°C° 0 mm 6 mps 743 mmHg 70%
    12:00 +3°C° 0 mm 6 mps 743 mmHg 69%
    13:00 +3°C° 0 mm 6 mps 743 mmHg 69%
    14:00 +3°C° 0 mm 5 mps 742 mmHg 70%
    15:00 +2°C° 0 mm 5 mps 742 mmHg 70%
    16:00 +2°C° 0 mm 5 mps 742 mmHg 72%
    17:00 +1°C° 0 mm 5 mps 741 mmHg 73%
    18:00 +1°C° 0 mm 4 mps 741 mmHg 75%
    19:00 +1°C° 0 mm 5 mps 741 mmHg 75%
    20:00 +2°C° 0 mm 5 mps 741 mmHg 75%
    21:00 +2°C° 0 mm 6 mps 740 mmHg 75%
    22:00 +2°C° 0.1 mm 6 mps 740 mmHg 77%
    23:00 +2°C° 0.1 mm 6 mps 740 mmHg 79%

    Day after tomorrow, 15 December, Friday

    Time Temperature Precipitation Wind Pressure Humidity
    00:00 +2°C° 0.1 mm 6 mps 740 mmHg 81%
    01:00 +2°C° 0 mm 6 mps 740 mmHg 83%
    02:00 +1°C° 0 mm 5 mps 740 mmHg 85%
    03:00 +1°C° 0 mm 4 mps 741 mmHg 87%
    04:00 +1°C° 0 mm 4 mps 741 mmHg 89%
    05:00 +1°C° 0 mm 3 mps 742 mmHg 90%
    06:00 +1°C° 0 mm 3 mps 742 mmHg 91%
    07:00 0°C° 0 mm 4 mps 743 mmHg 91%
    08:00 0°C° 0 mm 4 mps 744 mmHg 90%
    09:00 0°C° 0 mm 5 mps 746 mmHg 90%
    10:00 +1°C° 0 mm 5 mps 747 mmHg 87%
    11:00 +1°C° 0 mm 5 mps 748 mmHg 84%
    12:00 +2°C° 0 mm 6 mps 749 mmHg 82%
    13:00 +2°C° 0 mm 6 mps 749 mmHg 82%
    14:00 +2°C° 0 mm 5 mps 750 mmHg 83%
    15:00 +2°C° 0 mm 5 mps 751 mmHg 84%
    16:00 +1°C° 0 mm 5 mps 751 mmHg 85%
    17:00 +1°C° 0 mm 5 mps 752 mmHg 86%
    18:00 0°C° 0 mm 4 mps 753 mmHg 86%
    19:00 0°C° 0 mm 4 mps 753 mmHg 85%
    20:00 0°C° 0 mm 4 mps 754 mmHg 84%
    21:00 -1°C° 0 mm 4 mps 755 mmHg 83%
    22:00 -1°C° 0 mm 4 mps 755 mmHg 82%
    23:00 -1°C° 0 mm 4 mps 755 mmHg 81%

    16 December, Saturday

    Time Temperature Precipitation Wind Pressure Humidity
    00:00 -1°C° 0 mm 4 mps 756 mmHg 80%
    01:00 -1°C° 0 mm 4 mps 756 mmHg 80%
    02:00 -1°C° 0 mm 4 mps 756 mmHg 81%
    03:00 -1°C° 0 mm 4 mps 757 mmHg 81%
    04:00 -1°C° 0 mm 4 mps 757 mmHg 81%
    05:00 -2°C° 0 mm 4 mps 757 mmHg 82%
    06:00 -2°C° 0 mm 4 mps 758 mmHg 82%
    07:00 -1°C° 0 mm 4 mps 758 mmHg 81%
    08:00 -1°C° 0 mm 4 mps 759 mmHg 80%
    09:00 -1°C° 0 mm 4 mps 760 mmHg 80%
    10:00 0°C° 0 mm 4 mps 760 mmHg 75%
    11:00 +1°C° 0 mm 5 mps 761 mmHg 70%
    12:00 +2°C° 0 mm 5 mps 761 mmHg 65%
    13:00 +1°C° 0 mm 4 mps 762 mmHg 66%
    14:00 +1°C° 0 mm 4 mps 762 mmHg 68%
    15:00 +2°C° 0 mm 3 mps 762 mmHg 70%
    16:00 +1°C° 0 mm 3 mps 763 mmHg 73%
    17:00 +1°C° 0 mm 3 mps 764 mmHg 77%
    18:00 0°C° 0 mm 3 mps 764 mmHg 80%
    19:00 0°C° 0 mm 3 mps 765 mmHg 81%
    20:00 0°C° 0 mm 3 mps 765 mmHg 83%
    21:00 0°C° 0 mm 3 mps 766 mmHg 84%
    22:00 0°C° 0.1 mm 3 mps 766 mmHg 84%
    23:00 +1°C° 0.1 mm 3 mps 766 mmHg 84%

    17 December, Sunday

    Time Temperature Precipitation Wind Pressure Humidity
    00:00 +1°C° 0.1 mm 3 mps 766 mmHg 84%
    01:00 +1°C° 0 mm 3 mps 766 mmHg 85%
    02:00 +1°C° 0 mm 3 mps 766 mmHg 86%
    03:00 +1°C° 0 mm 3 mps 767 mmHg 87%
    04:00 +1°C° 0 mm 3 mps 767 mmHg 89%
    05:00 +1°C° 0 mm 3 mps 767 mmHg 91%
    06:00 +2°C° 0 mm 2 mps 767 mmHg 93%
    07:00 +2°C° 0 mm 2 mps 767 mmHg 93%
    08:00 +2°C° 0 mm 2 mps 768 mmHg 94%
    09:00 +2°C° 0 mm 2 mps 768 mmHg 94%
    10:00 +3°C° 0 mm 2 mps 768 mmHg 92%
    11:00 +4°C° 0 mm 2 mps 768 mmHg 89%
    12:00 +4°C° 0 mm 3 mps 768 mmHg 86%
    13:00 +4°C° 0 mm 3 mps 768 mmHg 88%
    14:00 +4°C° 0 mm 3 mps 768 mmHg 89%
    15:00 +4°C° 0 mm 3 mps 768 mmHg 91%
    16:00 +4°C° 0 mm 3 mps 767 mmHg 92%
    17:00 +4°C° 0 mm 3 mps 767 mmHg 92%
    18:00 +4°C° 0 mm 3 mps 767 mmHg 93%
    19:00 +4°C° 0 mm 4 mps 767 mmHg 92%
    20:00 +4°C° 0 mm 4 mps 767 mmHg 91%
    21:00 +5°C° 0 mm 5 mps 767 mmHg 90%
    22:00 +6°C° 0.3 mm 5 mps 766 mmHg 90%
    23:00 +5°C° 0.3 mm 6 mps 766 mmHg 91%

    18 December, Monday

    Time Temperature Precipitation Wind Pressure Humidity
    00:00 +6°C° 0.3 mm 7 mps 765 mmHg 91%
    01:00 +6°C° 0.1 mm 7 mps 765 mmHg 91%
    02:00 +8°C° 0.1 mm 6 mps 765 mmHg 92%
    03:00 +8°C° 0.1 mm 6 mps 765 mmHg 92%
    04:00 +8°C° 0.1 mm 6 mps 765 mmHg 92%
    05:00 +8°C° 0.1 mm 5 mps 765 mmHg 93%
    06:00 +9°C° 0.1 mm 5 mps 765 mmHg 94%
    07:00 +8°C° 0 mm 5 mps 766 mmHg 94%
    08:00 +8°C° 0 mm 4 mps 766 mmHg 93%
    09:00 +7°C° 0 mm 4 mps 767 mmHg 93%
    10:00 +7°C° 0 mm 4 mps 767 mmHg 90%
    11:00 +7°C° 0 mm 4 mps 768 mmHg 87%
    12:00 +8°C° 0 mm 4 mps 768 mmHg 83%
    13:00 +8°C° 0 mm 3 mps 768 mmHg 85%
    14:00 +8°C° 0 mm 3 mps 768 mmHg 86%
    15:00 +7°C° 0 mm 3 mps 769 mmHg 87%
    16:00 +7°C° 0 mm 2 mps 769 mmHg 89%
    17:00 +6°C° 0 mm 2 mps 770 mmHg 90%
    18:00 +5°C° 0 mm 2 mps 770 mmHg 92%
    19:00 +5°C° 0 mm 2 mps 771 mmHg 92%
    20:00 +5°C° 0 mm 1 mps 771 mmHg 91%
    21:00 +5°C° 0 mm 1 mps 772 mmHg 91%
    22:00 +5°C° 0 mm 1 mps 772 mmHg 91%
    23:00 +5°C° 0 mm 1 mps 772 mmHg 91%
    Show more